Orlando International, FL

3:20 AM EDT on May 29, 2017 (GMT -0400)
Orlando International

Weather History for KMCO - September, 2013

Change the Weather History Date:

Sunday, September 1, 2013

  Actual Average Record
Temperature  
Mean Temperature 83 °F 82 °F  
Max Temperature 92 °F 91 °F 96 °F (1935)
Min Temperature 73 °F 74 °F 65 °F (1938)
Degree Days  
Heating Degree Days 0 0  
Month to date heating degree days 0 0  
Since 1 July heating degree days 0 0  
Cooling Degree Days 18 17  
Month to date cooling degree days 18 17  
Year to date cooling degree days 2509 2410  
Growing Degree Days 32 (Base 50)    
Moisture  
Dew Point 73 °F    
Average Humidity 73    
Maximum Humidity 94    
Minimum Humidity 52    
Precipitation  
Precipitation 1.92 in 0.22 in 2.26 in (1989)
Month to date precipitation 1.92 0.22  
Year to date precipitation 37.51 36.83  
Sea Level Pressure  
Sea Level Pressure 29.97 in    
Wind  
Wind Speed 4 mph (South)    
Max Wind Speed 29 mph    
Max Gust Speed 37 mph    
Visibility 8 miles    
Events Fog , Rain , Thunderstorm    
T = Trace of Precipitation, MM = Missing Value Source: NWS Daily Summary

Daily Weather History Graph

Daily Weather History Graph

Search for Another Location

Airport or City:

Trip Planner

Search our weather history database for the weather conditions in past years. The results will help you decide how hot, cold, wet, or windy it might be!

Date:

Astronomy

Sep. 01, 2013 Rise Set
Actual Time 7:03 AM EDT 7:46 PM EDT
Civil Twilight 6:39 AM EDT 8:10 PM EDT
Nautical Twilight 6:11 AM EDT 8:38 PM EDT
Astronomical Twilight 5:42 AM EDT 9:06 PM EDT
Moon 3:35 AM EDT (9/1) 5:13 PM EDT (9/1)
Length of Visible Light 13h 30m
Length of Day
12h 42m
Waning Crescent, 14% of the Moon is Illuminated
Sep 1
Waning Crescent
Sep 5
New
Sep 12
First Quarter
Sep 19
Full
Sep 26
Last Quarter

Hourly Weather History & Observations

Time (EDT) Temp. Heat Index Dew Point Humidity Pressure Visibility Wind Dir Wind Speed Gust Speed Precip Events Conditions
12:53 AM 73.9 °F - 71.1 °F 91% 29.97 in 10.0 mi SSE 6.9 mph - N/A   Partly Cloudy
1:53 AM 73.9 °F - 71.1 °F 91% 29.96 in 10.0 mi South 4.6 mph - N/A   Partly Cloudy
2:53 AM 73.9 °F - 71.1 °F 91% 29.96 in 10.0 mi South 5.8 mph - N/A   Scattered Clouds
3:53 AM 73.9 °F - 72.0 °F 93% 29.95 in 10.0 mi South 3.5 mph - N/A   Partly Cloudy
4:53 AM 73.9 °F - 72.0 °F 93% 29.95 in 10.0 mi SSE 3.5 mph - N/A   Scattered Clouds
5:53 AM 73.0 °F - 72.0 °F 96% 29.96 in 10.0 mi Calm Calm - N/A   Partly Cloudy
6:53 AM 73.0 °F - 72.0 °F 96% 29.98 in 10.0 mi South 3.5 mph - N/A   Partly Cloudy
7:53 AM 75.0 °F - 73.0 °F 94% 29.99 in 10.0 mi Calm Calm - N/A   Scattered Clouds
8:53 AM 79.0 °F - 73.0 °F 82% 30.00 in 10.0 mi SW 5.8 mph - N/A   Scattered Clouds
9:53 AM 82.0 °F 87.9 °F 73.9 °F 76% 30.00 in 10.0 mi SW 4.6 mph - N/A   Scattered Clouds
10:53 AM 84.9 °F 92.1 °F 73.9 °F 69% 30.00 in 10.0 mi SSW 5.8 mph - N/A   Scattered Clouds
11:53 AM 87.1 °F 94.5 °F 73.0 °F 63% 30.00 in 10.0 mi West 6.9 mph - N/A   Scattered Clouds
12:53 PM 89.1 °F 97.0 °F 73.0 °F 59% 29.99 in 10.0 mi WSW 5.8 mph - N/A   Scattered Clouds
1:53 PM 88.0 °F 94.7 °F 72.0 °F 59% 29.97 in 10.0 mi Calm Calm - N/A   Mostly Cloudy
2:53 PM 91.0 °F 98.2 °F 72.0 °F 53% 29.94 in 10.0 mi Calm Calm - N/A   Scattered Clouds
3:53 PM 90.0 °F 96.9 °F 72.0 °F 55% 29.92 in 10.0 mi Calm Calm - N/A   Scattered Clouds
4:53 PM 90.0 °F 96.4 °F 71.1 °F 54% 29.91 in 10.0 mi Calm Calm - N/A   Mostly Cloudy
5:53 PM 89.1 °F 96.0 °F 72.0 °F 57% 29.92 in 10.0 mi SE 8.1 mph - N/A   Mostly Cloudy
5:58 PM 86.0 °F 93.4 °F 73.4 °F 66% 29.94 in 7.0 mi SSE 28.8 mph 36.8 mph 0.00 in Rain , Thunderstorm Thunderstorms and Rain
6:01 PM 80.6 °F 86.2 °F 75.2 °F 84% 29.95 in 0.5 mi South 25.3 mph 36.8 mph 0.00 in Rain , Thunderstorm Heavy Thunderstorms and Rain
6:06 PM 77.0 °F - 75.2 °F 94% 29.98 in 0.2 mi South 20.7 mph 36.8 mph 0.37 in Fog , Rain , Thunderstorm Heavy Thunderstorms and Rain
6:15 PM 75.2 °F - 75.2 °F 100% 30.01 in 0.2 mi South 9.2 mph 25.3 mph 1.01 in Fog , Rain , Thunderstorm Heavy Thunderstorms and Rain
6:26 PM 75.2 °F - 75.2 °F 100% 29.99 in 0.8 mi ESE 17.3 mph - 1.51 in Rain , Thunderstorm Heavy Thunderstorms and Rain
6:38 PM 75.2 °F - 73.4 °F 94% 29.99 in 3.0 mi SE 12.7 mph - 1.82 in Rain , Thunderstorm Thunderstorms and Rain
6:53 PM 75.0 °F - 73.9 °F 96% 29.97 in 5.0 mi SE 12.7 mph - 1.91 in Rain , Thunderstorm Light Thunderstorms and Rain
7:53 PM 75.0 °F - 73.0 °F 94% 29.97 in 10.0 mi SSE 4.6 mph - 0.00 in   Overcast
8:08 PM 75.2 °F - 71.6 °F 89% 29.97 in 10.0 mi SSE 5.8 mph - N/A Thunderstorm Thunderstorm
8:32 PM 75.2 °F - 73.4 °F 94% 29.98 in 10.0 mi SSW 3.5 mph - N/A   Overcast
8:53 PM 75.9 °F - 73.0 °F 91% 29.97 in 10.0 mi SW 3.5 mph - 0.01 in   Overcast
9:53 PM 75.0 °F - 73.9 °F 96% 29.99 in 10.0 mi Calm Calm - N/A   Mostly Cloudy
10:53 PM 75.0 °F - 73.9 °F 96% 30.01 in 10.0 mi SE 4.6 mph - N/A   Overcast
11:53 PM 75.9 °F - 73.9 °F 94% 30.02 in 10.0 mi South 3.5 mph - N/A   Overcast